{"data":{"norad_id":53394,"intl_designator":"2022-097G","name":"STARLINK-4544","alt_names":[],"object_type":"PAYLOAD","status":"ACTIVE","operator":null,"country":"US","launch_date":"2022-08-10","launch_site_code":"AFETR","launch_vehicle":null,"mission":null,"orbit_class":"UNKNOWN","rcs_meters":null,"size_class":null,"mass_kg":null,"dimensions":null,"purposes":["comms"],"wikipedia_slug":null,"has_3d_model":false,"image_url":null,"decayed_at":null,"tle_current":{"epoch":"2026-05-25T05:28:10.339680Z","epoch_age_seconds":55390,"freshness":"FRESH","line1":"1 53394U 22097G   26145.22789745 -.00000418  00000+0 -81833-5 0  9998","line2":"2 53394  53.2151 130.1363 0001024  79.3398 280.7710 15.08842641210373","mean_motion":15.08842641,"eccentricity":0.0001024,"inclination_deg":53.2151,"raan_deg":130.1363,"arg_perigee_deg":79.3398,"mean_anomaly_deg":280.771,"bstar":-8.1833e-6,"rev_number":21037,"period_min":95.437387628814,"perigee_km":539.02692637022,"apogee_km":540.44370662064,"semimajor_km":6917.8723164954,"source":"CELESTRAK","updated_at":"2026-05-25T13:38:17.395553Z"}}}